Location: Puketoi
(40.5833°S, 176.0167°E)
Time: 14:47:59
(UTC+00:00)

PAYLOAD A - Pass Details

Date: 08 February 2023
Orbit: 692 x 830 km, 98.5° (Epoch: 22 March)

Event Time Altitude Azimuth Distance (km) Brightness Sun altitude
Exits shadow 15:15:09 50° 334° (NNW) 1,061 4.3 -22.6°
Maximum altitude 15:16:22 63° 282° (WNW) 932 4.1 -22.4°
Drops below altitude 10° 15:21:49 10° 200° (SSW) 2,464 6.9 -21.7°
Sets 15:24:13 0° 196° (SSW) 3,396 7.7 -21.4°
